Regional Weather Roundup
Issued by NWS

Home | Current Version | Previous Version | Graphics & Text | Print | Product List | Glossary On
Versions: 1 2 3 4 5 6 7 8 9 10 11 12 13 14 15 16 17 18 19 20 21 22 23 24 25 26 27
000
ASUS45 KBOI 301010
RWRID

IDAHO REGIONAL WEATHER ROUNDUP
NATIONAL WEATHER SERVICE BOISE ID
400 AM MDT MON MAY 30 2016

NOTE: "FAIR" INDICATES FEW OR NO CLOUDS BELOW 12000 FEET
WITH NO SIGNIFICANT WEATHER AND/OR OBSTRUCTIONS TO VISIBILITY

IDZ012-014-301100-
SOUTHWEST IDAHO


CITY           SKY/WX    TMP DP  RH WIND       PRES   REMARKS
BOISE          CLEAR     56  37  49 NW9       30.07R
CALDWELL       CLEAR     53  38  56 W8        30.09R
MOUNTAIN HOME  CLEAR     60  43  52 NW15      30.05R
$$

IDZ016-017-301100-
SOUTHCENTRAL IDAHO


CITY           SKY/WX    TMP DP  RH WIND       PRES   REMARKS
BURLEY         MOCLDY    54  45  71 SW9       30.04R
JEROME         CLEAR     53  42  66 S5        30.06R
TWIN FALLS     PTCLDY    52  39  61 S13       30.07R
$$

IDZ019>023-301100-
SOUTHEAST IDAHO


CITY           SKY/WX    TMP DP  RH WIND       PRES   REMARKS
IDAHO FALLS    CLOUDY    52  42  69 SW10      30.05S
POCATELLO      MOCLDY    48  42  80 N6        30.06R
REXBURG        CLOUDY    52  40  63 SW10      30.04S
$$

IDZ006-010-011-018-031-032-301100-
CENTRAL IDAHO MOUNTAINS


CITY           SKY/WX    TMP DP  RH WIND       PRES   REMARKS
MCCALL         CLEAR     40  34  79 CALM      30.12S
HAILEY         CLEAR     43  34  70 NW8       30.12R
STANLEY          N/A     33  26  75 SE3       30.16S
SALMON         CLEAR     48  37  66 SE3       30.06S
CHALLIS        CLEAR     45  29  53 S3        30.09R
$$

IDZ002-004-006-007-026-301100-
NORTHERN IDAHO


CITY           SKY/WX    TMP DP  RH WIND       PRES   REMARKS
LEWISTON       CLOUDY    59  37  44 W9        30.12R
LOWELL           N/A     54  49  83 CALM      30.12R
COEUR D`ALENE  CLEAR     45  37  76 W6        30.10R
MULLAN PASS    MOCLDY    38  33  82 NW5       30.11R WCI  34
$$




USA.gov is the U.S. government's official web portal to all federal, state and local government web resources and services.